• In Moldova, Republic
  • List of Countries
  • For 7 days
  • Water Temperature
  • Satellite Maps
  • Weather Map
  • Weather Widgets
  • user-avatar
    Login

    Hourly Weather Baku

    Today, 21 January, Saturday

    Time Temperature Precipitation Wind Pressure Humidity
    00:00 +3°C° 0 mm 2 mps 769 mmHg 82%
    01:00 +3°C° 0 mm 2 mps 769 mmHg 83%
    02:00 +3°C° 0 mm 2 mps 768 mmHg 83%
    03:00 +2°C° 0 mm 3 mps 768 mmHg 83%
    04:00 +2°C° 0 mm 2 mps 768 mmHg 83%
    05:00 +2°C° 0 mm 2 mps 768 mmHg 84%
    06:00 +2°C° 0 mm 2 mps 768 mmHg 84%
    07:00 +3°C° 0 mm 2 mps 768 mmHg 82%
    08:00 +2°C° 0 mm 3 mps 768 mmHg 79%
    09:00 +3°C° 0 mm 3 mps 768 mmHg 77%
    10:00 +3°C° 0 mm 3 mps 768 mmHg 75%
    11:00 +4°C° 0 mm 3 mps 768 mmHg 72%
    12:00 +4°C° 0 mm 3 mps 768 mmHg 69%
    13:00 +4°C° 0 mm 3 mps 768 mmHg 69%
    14:00 +5°C° 0 mm 2 mps 767 mmHg 68%
    15:00 +5°C° 0 mm 2 mps 767 mmHg 68%
    16:00 +5°C° 0 mm 2 mps 767 mmHg 73%
    17:00 +4°C° 0 mm 2 mps 767 mmHg 77%
    18:00 +3°C° 0 mm 2 mps 767 mmHg 82%
    19:00 +3°C° 0 mm 2 mps 767 mmHg 83%
    20:00 +4°C° 0 mm 1 mps 767 mmHg 84%
    21:00 +4°C° 0 mm 1 mps 766 mmHg 86%
    22:00 +3°C° 0 mm 2 mps 766 mmHg 86%
    23:00 +3°C° 0 mm 2 mps 766 mmHg 85%

    Tomorrow, 22 January, Sunday

    Time Temperature Precipitation Wind Pressure Humidity
    00:00 +3°C° 0 mm 2 mps 766 mmHg 85%
    01:00 +2°C° 0 mm 3 mps 766 mmHg 83%
    02:00 +1°C° 0 mm 4 mps 766 mmHg 82%
    03:00 +1°C° 0 mm 4 mps 766 mmHg 80%
    04:00 +1°C° 0 mm 4 mps 766 mmHg 77%
    05:00 +1°C° 0 mm 5 mps 766 mmHg 74%
    06:00 0°C° 0 mm 5 mps 765 mmHg 71%
    07:00 +1°C° 0 mm 5 mps 766 mmHg 72%
    08:00 +2°C° 0 mm 5 mps 766 mmHg 73%
    09:00 +2°C° 0 mm 5 mps 766 mmHg 75%
    10:00 +4°C° 0 mm 4 mps 766 mmHg 70%
    11:00 +4°C° 0 mm 4 mps 766 mmHg 66%
    12:00 +5°C° 0 mm 3 mps 766 mmHg 62%
    13:00 +7°C° 0 mm 3 mps 766 mmHg 58%
    14:00 +7°C° 0 mm 3 mps 766 mmHg 54%
    15:00 +8°C° 0 mm 3 mps 766 mmHg 50%
    16:00 +6°C° 0.2 mm 5 mps 767 mmHg 58%
    17:00 +4°C° 0.2 mm 8 mps 768 mmHg 66%
    18:00 +2°C° 0.2 mm 10 mps 769 mmHg 74%
    19:00 +1°C° 0.1 mm 10 mps 770 mmHg 72%
    20:00 -1°C° 0.1 mm 11 mps 771 mmHg 70%
    21:00 -1°C° 0.1 mm 11 mps 772 mmHg 68%
    22:00 0°C° 0 mm 10 mps 772 mmHg 66%
    23:00 -1°C° 0 mm 9 mps 772 mmHg 65%

    Day after tomorrow, 23 January, Monday

    Time Temperature Precipitation Wind Pressure Humidity
    00:00 -1°C° 0 mm 8 mps 773 mmHg 64%
    01:00 -1°C° 0 mm 6 mps 773 mmHg 63%
    02:00 0°C° 0 mm 5 mps 773 mmHg 63%
    03:00 +1°C° 0 mm 3 mps 773 mmHg 63%
    04:00 +1°C° 0 mm 3 mps 773 mmHg 64%
    05:00 +1°C° 0 mm 3 mps 773 mmHg 65%
    06:00 +1°C° 0 mm 2 mps 773 mmHg 66%
    07:00 +1°C° 0 mm 3 mps 773 mmHg 65%
    08:00 +1°C° 0 mm 5 mps 773 mmHg 64%
    09:00 +1°C° 0 mm 6 mps 773 mmHg 63%
    10:00 +2°C° 0 mm 6 mps 773 mmHg 61%
    11:00 +3°C° 0 mm 7 mps 773 mmHg 60%
    12:00 +4°C° 0 mm 7 mps 772 mmHg 58%
    13:00 +4°C° 0 mm 7 mps 772 mmHg 56%
    14:00 +5°C° 0 mm 6 mps 772 mmHg 54%
    15:00 +6°C° 0 mm 5 mps 772 mmHg 52%
    16:00 +5°C° 0 mm 5 mps 772 mmHg 59%
    17:00 +3°C° 0 mm 5 mps 772 mmHg 66%
    18:00 +2°C° 0 mm 5 mps 773 mmHg 73%
    19:00 +3°C° 0 mm 4 mps 773 mmHg 73%
    20:00 +3°C° 0 mm 4 mps 774 mmHg 73%
    21:00 +1°C° 0 mm 4 mps 774 mmHg 74%
    22:00 +2°C° 0 mm 3 mps 774 mmHg 75%
    23:00 +2°C° 0 mm 2 mps 774 mmHg 75%

    24 January, Tuesday

    Time Temperature Precipitation Wind Pressure Humidity
    00:00 +2°C° 0 mm 2 mps 774 mmHg 76%
    01:00 +2°C° 0 mm 2 mps 774 mmHg 75%
    02:00 +3°C° 0 mm 2 mps 774 mmHg 73%
    03:00 +2°C° 0 mm 3 mps 774 mmHg 71%
    04:00 +2°C° 0 mm 3 mps 774 mmHg 72%
    05:00 +1°C° 0 mm 4 mps 774 mmHg 73%
    06:00 +1°C° 0 mm 4 mps 774 mmHg 73%
    07:00 +2°C° 0 mm 5 mps 774 mmHg 69%
    08:00 +3°C° 0 mm 6 mps 774 mmHg 64%
    09:00 +3°C° 0 mm 6 mps 773 mmHg 59%
    10:00 +4°C° 0 mm 7 mps 773 mmHg 57%
    11:00 +5°C° 0 mm 7 mps 772 mmHg 55%
    12:00 +6°C° 0 mm 8 mps 772 mmHg 53%
    13:00 +6°C° 0 mm 8 mps 771 mmHg 53%
    14:00 +6°C° 0 mm 8 mps 770 mmHg 54%
    15:00 +6°C° 0 mm 9 mps 769 mmHg 54%
    16:00 +6°C° 0 mm 9 mps 769 mmHg 58%
    17:00 +5°C° 0 mm 9 mps 769 mmHg 62%
    18:00 +3°C° 0 mm 9 mps 768 mmHg 66%
    19:00 +3°C° 0 mm 9 mps 768 mmHg 67%
    20:00 +3°C° 0 mm 9 mps 768 mmHg 68%
    21:00 +3°C° 0 mm 9 mps 767 mmHg 70%
    22:00 +3°C° 0 mm 10 mps 766 mmHg 70%
    23:00 +3°C° 0 mm 10 mps 766 mmHg 70%

    25 January, Wednesday

    Time Temperature Precipitation Wind Pressure Humidity
    00:00 +2°C° 0 mm 10 mps 765 mmHg 70%
    01:00 +2°C° 0 mm 10 mps 764 mmHg 67%
    02:00 +2°C° 0 mm 10 mps 764 mmHg 65%
    03:00 +2°C° 0 mm 10 mps 763 mmHg 62%
    04:00 +2°C° 0 mm 10 mps 763 mmHg 60%
    05:00 +2°C° 0 mm 9 mps 762 mmHg 57%
    06:00 +1°C° 0 mm 9 mps 762 mmHg 54%
    07:00 +2°C° 0 mm 9 mps 762 mmHg 51%
    08:00 +3°C° 0 mm 9 mps 762 mmHg 48%
    09:00 +4°C° 0 mm 8 mps 762 mmHg 44%
    10:00 +6°C° 0 mm 8 mps 761 mmHg 39%
    11:00 +7°C° 0 mm 8 mps 761 mmHg 34%
    12:00 +9°C° 0 mm 8 mps 760 mmHg 29%
    13:00 +9°C° 0 mm 7 mps 760 mmHg 31%
    14:00 +9°C° 0 mm 7 mps 759 mmHg 33%
    15:00 +9°C° 0 mm 6 mps 759 mmHg 35%
    16:00 +8°C° 0 mm 5 mps 759 mmHg 43%
    17:00 +6°C° 0 mm 5 mps 759 mmHg 52%
    18:00 +5°C° 0 mm 4 mps 758 mmHg 60%
    19:00 +5°C° 0 mm 4 mps 758 mmHg 63%
    20:00 +4°C° 0 mm 3 mps 758 mmHg 65%
    21:00 +4°C° 0 mm 3 mps 758 mmHg 68%
    22:00 +4°C° 0 mm 3 mps 758 mmHg 64%
    23:00 +4°C° 0 mm 3 mps 757 mmHg 61%

    26 January, Thursday

    Time Temperature Precipitation Wind Pressure Humidity
    00:00 +4°C° 0 mm 3 mps 757 mmHg 58%
    01:00 +4°C° 0 mm 4 mps 756 mmHg 54%
    02:00 +3°C° 0 mm 5 mps 756 mmHg 50%
    03:00 +3°C° 0 mm 5 mps 756 mmHg 46%
    04:00 +3°C° 0 mm 5 mps 756 mmHg 50%
    05:00 +3°C° 0 mm 5 mps 756 mmHg 55%
    06:00 +2°C° 0 mm 5 mps 756 mmHg 60%
    07:00 +3°C° 0 mm 5 mps 756 mmHg 65%
    08:00 +3°C° 0 mm 5 mps 756 mmHg 69%
    09:00 +5°C° 0 mm 5 mps 757 mmHg 74%
    10:00 +5°C° 0 mm 5 mps 757 mmHg 72%
    11:00 +5°C° 0 mm 6 mps 757 mmHg 69%
    12:00 +5°C° 0 mm 6 mps 757 mmHg 66%
    13:00 +5°C° 0 mm 8 mps 757 mmHg 69%
    14:00 +5°C° 0 mm 9 mps 758 mmHg 71%
    15:00 +4°C° 0 mm 11 mps 758 mmHg 73%
    16:00 +3°C° 0 mm 11 mps 759 mmHg 75%
    17:00 +2°C° 0 mm 12 mps 759 mmHg 76%
    18:00 +2°C° 0 mm 12 mps 760 mmHg 78%
    19:00 +2°C° 0 mm 12 mps 760 mmHg 78%
    20:00 0°C° 0 mm 12 mps 761 mmHg 79%
    21:00 0°C° 0 mm 12 mps 762 mmHg 79%
    22:00 0°C° 0 mm 12 mps 762 mmHg 79%
    23:00 0°C° 0 mm 12 mps 762 mmHg 79%
    Show more